Location: Peach Mountain Observatory
(42.3967°N, 83.9367°W)
Time: 20:51:31
(UTC-05:00)

deb Explorer IX - Pass Details

Date: 28 January 2020
Orbit: 549 x 1099 km, 38.8° (Epoch: 25 February)

Event Time Altitude Azimuth Distance (km) Brightness Sun altitude
Rises 20:02:45 0° 218° (SW) 3,472 ? -25.6°
Reaches altitude 10° 20:05:29 10° 208° (SSW) 2,622 ? -26.1°
Enters shadow 20:10:12 30° 161° (SSE) 1,713 ? -27.0°
